Location: L�beck
(53.8752°N, 10.6787°E)
Time: 04:52:47
(UTC+01:00)

ISS - Pass Details

Date: 13 November 2017
Orbit: 402 x 407 km, 51.6° (Epoch: 22 November)

Event Time Altitude Azimuth Distance (km) Brightness Sun altitude
Exits shadow 05:02:32 30° 142° (SE) 756 -2.2 -23.1°
Drops below altitude 10° 05:04:29 10° 121° (ESE) 1,455 -0.2 -22.8°
Sets 05:06:36 0° 115° (ESE) 2,313 1.1 -22.5°
